Wetbulb
67.90 70.36 72.58 73.41 73.04 72.88 73.09 73.15 73.09 72.97 73.28 73.62 73.44 73.44 73.12 73.12 73.41 73.81 73.60 73.95 73.87 74.23 74.36 73.81 74.20 74.05 73.76 73.06 73.01 73.03 72.60 72.31 72.08 72.30 72.52 72.25 72.32 71.92 72.19 72.21 72.17 71.67 72.64
68.56 70.72 72.18 73.13 73.11 73.18 73.26 73.16 73.26 73.35 73.57 73.62 73.36 73.38 73.08 73.05 73.44 73.74 73.62 74.05 73.80 73.98 73.68 73.31 73.55 73.09 72.49 72.50 72.37 72.06 72.08 71.68 71.62 71.93 72.56 72.25 71.85 71.63 72.01 71.90 71.98 71.02 72.21
69.59 70.72 72.00 72.52 72.88 73.13 73.28 73.38 73.59 73.85 73.79 73.81 73.58 73.25 73.15 73.37 73.51 73.42 73.59 73.36 73.23 73.73 73.53 72.96 72.42 72.27 72.04 71.83 71.68 71.42 71.24 70.97 70.99 71.18 70.90 69.44 70.10 71.55 71.86 71.82 71.77 71.83 72.31
70.14 70.60 71.79 72.53 72.59 72.96 72.94 73.25 73.49 73.92 73.86 73.78 73.50 73.30 73.44 73.44 73.44 73.51 73.44 72.45 72.44 73.45 73.39 72.44 72.02 71.60 71.34 71.23 70.64 70.57 70.22 69.69 69.31 69.31 68.34 69.22 70.03 71.48 71.79 71.46 71.72 71.78 71.77
70.08 70.62 71.52 72.16 72.10 72.47 72.66 73.01 73.21 73.30 73.18 73.16 73.18 73.64 73.57 73.50 73.71 73.43 72.76 72.43 72.89 73.18 72.91 71.72 71.60 71.01 70.53 69.90 69.58 69.39 69.12 68.55 67.99 67.08 66.70 67.79 69.69 70.77 71.49 71.35 71.31 71.13 71.18
69.90 70.24 70.61 70.73 71.79 72.28 72.66 72.95 72.83 72.62 72.37 72.47 72.86 73.30 73.35 73.02 73.61 73.09 72.38 72.41 72.67 72.61 72.49 72.27 71.63 70.73 69.47 68.89 68.81 68.42 67.75 67.18 66.07 65.11 66.05 68.47 68.90 71.08 70.89 70.83 70.96 70.90 70.70
70.30 69.98 70.31 69.95 71.13 72.01 72.77 72.89 72.52 72.13 71.95 72.18 72.57 72.73 72.76 73.00 73.07 72.37 71.94 71.90 71.97 71.87 71.96 71.70 70.90 69.85 69.11 68.51 68.02 67.43 66.74 66.09 63.11 62.60 63.06 64.94 68.87 70.81 70.85 70.54 70.66 70.42 70.29
69.30 70.55 71.13 71.15 71.18 71.19 72.10 71.98 71.04 70.92 71.57 71.72 71.87 72.14 72.69 72.28 71.93 71.82 71.68 71.63 71.16 71.03 70.96 70.58 69.83 69.33 68.15 68.14 67.52 66.24 65.64 65.28 63.09 62.01 62.25 64.10 69.02 70.57 70.40 70.06 70.10 69.99 69.98
68.82 70.37 69.71 71.14 71.46 70.53 70.27 70.18 69.79 70.00 71.01 71.17 71.11 71.33 71.53 70.98 70.71 71.11 71.21 71.18 70.89 70.57 70.04 69.76 69.15 68.49 67.24 67.35 66.55 65.48 64.54 64.14 60.94 61.75 62.25 63.14 67.89 69.71 69.56 69.34 69.65 70.00 69.72
68.82 69.03 69.72 70.17 70.72 70.45 70.60 69.61 69.46 69.74 70.16 70.48 70.70 70.38 69.67 69.84 70.14 70.16 70.02 70.25 70.35 70.07 69.60 69.18 68.56 67.38 66.48 66.44 65.58 64.87 64.09 62.97 60.39 60.81 61.60 64.15 66.96 67.44 68.56 68.88 69.23 69.40 69.25
68.33 68.30 69.36 69.14 69.49 70.13 69.79 69.99 69.85 70.20 70.10 69.90 70.37 69.61 67.97 68.81 69.03 69.07 68.72 69.19 69.40 69.06 68.76 68.40 67.91 66.05 65.82 65.75 65.18 64.03 61.82 59.70 59.68 60.03 61.61 65.96 67.20 67.07 67.71 67.87 68.40 68.46 68.71
66.53 67.90 68.94 68.72 68.84 69.15 69.36 69.30 69.39 69.81 70.09 70.17 70.02 69.09 68.41 68.10 68.03 68.01 68.27 68.21 68.50 68.21 67.74 67.52 66.64 65.02 64.69 63.49 62.73 62.60 59.66 59.56 59.44 59.93 62.13 64.99 66.43 66.07 65.83 66.28 67.18 67.56 67.75
67.25 67.58 68.32 68.47 68.88 68.63 68.65 69.42 68.72 68.81 69.14 69.65 69.04 68.81 68.21 68.02 67.89 67.11 67.41 67.68 67.29 67.27 65.76 65.84 64.06 59.44 60.39 61.72 58.69 58.56 58.95 59.30 59.23 60.10 63.15 64.69 65.50 65.16 64.97 64.39 64.79 65.79 66.24
67.29 67.31 68.17 68.51 68.75 68.61 68.94 69.09 68.54 68.23 68.43 68.29 68.61 68.82 68.21 67.71 67.35 66.62 66.64 66.48 67.05 64.86 62.75 62.98 61.37 57.57 57.85 58.69 58.79 58.59 58.52 58.73 58.40 59.52 62.07 63.43 64.56 64.38 63.97 63.42 63.83 63.92 64.09
67.00 67.70 67.79 68.32 68.50 68.34 68.48 68.42 68.62 67.78 67.63 67.75 68.11 68.91 68.46 67.70 67.38 67.11 66.64 66.22 66.84 64.15 62.42 60.72 59.56 56.91 55.87 57.45 58.16 58.58 58.16 58.17 58.42 59.22 60.26 62.56 63.36 64.19 64.02 63.87 63.76 63.30 62.87
67.27 67.72 68.21 67.89 68.37 68.16 67.82 68.15 68.30 68.59 67.75 67.77 67.86 68.24 68.25 67.93 67.47 66.99 66.72 66.58 66.39 64.34 60.62 60.19 58.96 56.01 54.87 57.32 57.17 57.96 57.89 58.26 58.48 58.39 59.70 61.25 61.69 62.91 63.78 63.35 62.86 62.38 61.77
66.76 67.98 68.19 67.77 68.06 67.81 67.97 68.25 68.40 68.54 68.16 67.37 67.68 68.25 68.33 67.86 67.47 66.93 66.62 66.35 65.38 64.43 61.01 58.36 56.46 54.77 53.93 56.26 56.53 57.01 57.73 57.70 58.10 58.04 58.86 59.27 60.77 61.07 62.14 63.15 62.98 61.98 61.77
65.66 66.70 68.22 68.31 67.76 67.71 68.04 68.23 68.57 68.71 68.20 67.89 67.87 67.97 68.03 67.99 67.81 66.94 65.98 65.73 65.07 64.50 61.01 58.73 56.54 54.69 53.42 54.81 54.78 55.82 56.76 57.35 57.51 57.39 57.82 58.23 58.90 59.29 60.28 61.45 61.57 62.61 62.11
60.04 65.36 67.14 68.17 67.49 67.62 68.26 68.33 68.35 68.63 68.49 68.55 68.17 67.83 67.73 67.61 67.28 66.83 66.02 65.30 64.87 63.86 61.62 59.74 56.83 56.04 53.46 53.39 54.81 54.66 55.52 56.02 56.70 57.00 56.75 57.05 57.44 57.76 57.88 60.54 60.88 60.82 60.94
55.60 60.59 65.57 67.34 67.71 67.84 68.20 68.07 68.09 68.02 68.38 68.84 68.50 68.27 67.85 67.37 66.85 66.31 65.68 64.81 64.78 63.35 62.03 59.78 57.02 55.68 54.57 54.26 55.88 53.47 53.84 54.84 55.60 55.72 56.00 56.77 56.43 56.69 56.98 58.14 59.02 58.52 59.27
54.55 55.42 61.24 64.67 66.98 67.34 67.44 66.86 66.80 66.51 67.26 67.70 68.52 68.93 68.47 67.34 66.74 65.89 65.17 64.16 64.39 63.03 61.63 59.67 56.89 55.87 53.86 54.73 52.64 52.01 52.06 52.91 53.97 54.45 55.40 55.48 55.64 55.90 55.66 56.71 56.42 56.20 57.63
54.28 53.95 56.13 63.14 65.95 67.26 67.27 67.56 67.46 67.08 67.21 67.97 68.10 68.17 68.61 67.94 66.44 65.60 64.75 63.66 63.69 63.03 61.28 58.71 57.31 55.45 54.38 55.48 52.50 51.42 50.94 52.29 51.99 53.01 53.98 54.71 54.37 55.44 55.20 55.50 55.78 55.30 56.07
55.01 55.72 56.07 60.70 64.74 67.01 67.07 67.38 67.31 67.25 67.13 67.13 67.23 67.48 68.01 68.05 66.20 65.93 64.71 63.57 62.90 62.61 60.98 59.37 57.58 55.82 54.42 54.89 54.81 52.07 48.30 48.77 49.51 51.04 52.35 53.40 53.74 53.89 55.23 54.77 54.99 55.20 55.37
55.52 56.84 55.95 58.08 63.01 66.66 67.02 66.31 65.77 65.03 64.40 66.23 66.82 67.21 67.46 67.83 66.64 66.16 64.82 63.76 62.94 62.41 61.11 59.47 58.78 56.82 55.88 53.83 54.02 54.27 52.40 50.79 49.34 48.63 50.03 51.97 53.56 53.72 54.00 53.81 54.24 54.54 54.92
51.58 51.56 54.58 60.43 63.64 66.33 66.80 66.32 65.93 64.92 65.29 66.38 66.48 66.03 67.08 67.42 66.58 66.13 64.89 63.60 62.68 62.31 61.03 60.07 58.26 56.66 56.43 55.72 55.30 54.66 50.15 49.85 50.14 49.00 48.46 49.62 52.26 54.30 54.58 54.44 54.28 54.36 54.51
50.64 51.59 54.89 61.86 63.61 66.03 66.86 66.60 65.96 65.17 65.24 65.32 65.64 65.71 66.24 66.91 66.24 65.78 65.02 63.25 62.66 62.10 61.06 59.71 58.77 57.19 57.05 57.11 57.46 56.49 54.04 51.09 49.18 48.81 47.52 49.66 50.92 52.63 54.18 54.66 54.34 54.13 54.40
MSLP
1007.46 1007.62 1008.06 1008.47 1008.74 1009.00 1009.21 1009.54 1009.81 1010.01 1010.46 1011.19 1011.58 1012.23 1012.21 1012.52 1012.83 1013.50 1013.94 1014.46 1014.86 1015.27 1015.66 1016.18 1016.49 1016.76 1016.99 1017.27 1017.58 1017.89 1018.14 1018.34 1018.47 1018.62 1018.77 1019.01 1019.24 1019.43 1019.64 1019.77 1019.87 1020.02 1020.13
1006.35 1007.28 1007.89 1008.39 1008.67 1009.00 1009.30 1009.53 1009.76 1010.22 1010.48 1011.13 1011.60 1012.52 1012.69 1012.79 1013.02 1013.54 1014.10 1014.51 1014.91 1015.42 1015.85 1016.43 1016.75 1017.04 1017.37 1017.69 1017.97 1018.22 1018.48 1018.59 1018.71 1018.89 1019.01 1019.26 1019.51 1019.74 1019.99 1020.06 1020.25 1020.35 1020.53
1006.54 1007.05 1007.75 1008.12 1008.42 1008.85 1009.17 1009.51 1009.83 1010.33 1010.63 1011.06 1011.79 1012.79 1012.94 1013.06 1013.36 1013.59 1014.31 1014.62 1015.04 1015.58 1016.05 1016.54 1017.00 1017.34 1017.72 1017.98 1018.22 1018.50 1018.78 1018.94 1019.01 1019.19 1019.49 1019.66 1019.86 1020.10 1020.26 1020.42 1020.63 1020.80 1020.93
1006.85 1007.39 1007.75 1008.13 1008.55 1008.95 1009.42 1009.58 1009.86 1010.32 1010.74 1011.12 1011.89 1012.79 1013.06 1013.25 1013.60 1013.82 1014.42 1014.84 1015.29 1015.75 1016.14 1016.62 1017.23 1017.72 1018.05 1018.26 1018.57 1018.79 1019.08 1019.26 1019.36 1019.55 1019.82 1019.98 1020.24 1020.42 1020.60 1020.79 1020.95 1021.13 1021.34
1007.05 1007.40 1007.87 1008.09 1008.46 1008.94 1009.23 1009.65 1009.93 1010.32 1010.85 1011.28 1011.95 1012.77 1013.20 1013.47 1013.78 1014.11 1014.54 1015.00 1015.51 1015.92 1016.36 1016.79 1017.38 1018.06 1018.45 1018.63 1018.89 1019.14 1019.39 1019.47 1019.69 1019.94 1020.10 1020.32 1020.51 1020.78 1021.04 1021.22 1021.42 1021.63 1021.80
1006.92 1007.11 1007.78 1008.28 1008.64 1008.90 1009.40 1009.73 1010.17 1010.56 1011.02 1011.49 1012.10 1012.76 1013.33 1013.69 1014.05 1014.44 1014.76 1015.24 1015.58 1015.97 1016.55 1017.06 1017.51 1018.21 1018.75 1018.86 1019.15 1019.49 1019.65 1019.79 1020.00 1020.25 1020.31 1020.53 1020.83 1021.14 1021.40 1021.61 1021.85 1022.05 1022.25
1007.03 1007.16 1007.59 1008.30 1008.68 1009.02 1009.40 1009.61 1010.20 1010.68 1011.04 1011.53 1012.19 1012.85 1013.44 1013.73 1014.17 1014.69 1014.93 1015.43 1015.80 1016.09 1016.55 1017.28 1017.70 1018.23 1019.06 1019.17 1019.47 1019.72 1019.92 1020.09 1020.28 1020.59 1020.77 1020.86 1021.06 1021.38 1021.70 1021.98 1022.21 1022.46 1022.65
1006.89 1007.35 1007.72 1008.18 1008.69 1009.08 1009.56 1009.75 1010.31 1010.81 1011.16 1011.57 1012.12 1012.83 1013.58 1013.93 1014.29 1014.76 1015.03 1015.55 1015.98 1016.48 1016.77 1017.41 1017.96 1018.32 1018.98 1019.54 1019.83 1020.03 1020.24 1020.33 1020.53 1020.85 1021.02 1021.07 1021.12 1021.44 1021.80 1022.09 1022.41 1022.73 1023.01
1007.22 1007.60 1007.62 1008.17 1008.66 1008.96 1009.62 1009.90 1010.52 1010.93 1011.27 1011.75 1012.28 1012.84 1013.62 1014.05 1014.41 1014.83 1015.09 1015.51 1016.16 1016.72 1017.12 1017.56 1018.11 1018.52 1018.84 1019.53 1020.08 1020.32 1020.54 1020.70 1020.94 1021.24 1021.34 1021.41 1021.50 1021.73 1022.04 1022.32 1022.70 1023.08 1023.29
1007.69 1007.94 1007.99 1008.11 1008.64 1008.91 1009.58 1010.10 1010.61 1011.11 1011.47 1011.92 1012.42 1012.99 1013.69 1014.14 1014.45 1014.89 1015.27 1015.75 1016.32 1016.89 1017.33 1017.71 1018.25 1018.71 1019.09 1019.47 1020.12 1020.64 1020.92 1021.15 1021.39 1021.54 1021.72 1021.79 1021.84 1022.07 1022.38 1022.69 1022.96 1023.36 1023.69
1007.76 1008.24 1008.29 1008.20 1008.78 1008.88 1009.46 1010.31 1010.86 1011.35 1011.61 1012.14 1012.60 1013.12 1013.82 1014.27 1014.59 1014.98 1015.28 1015.78 1016.22 1017.05 1017.55 1018.01 1018.49 1018.89 1019.48 1019.78 1020.08 1020.60 1021.17 1021.63 1021.80 1021.98 1022.07 1022.09 1022.20 1022.35 1022.68 1023.03 1023.29 1023.55 1023.93
1007.43 1008.22 1008.37 1008.26 1008.80 1008.89 1009.16 1009.97 1010.79 1011.44 1011.84 1012.26 1012.68 1013.17 1013.87 1014.33 1014.61 1014.94 1015.45 1015.86 1016.51 1017.14 1017.86 1018.25 1018.71 1019.18 1019.78 1020.16 1020.51 1020.69 1021.27 1021.72 1022.04 1022.31 1022.39 1022.41 1022.58 1022.74 1023.07 1023.41 1023.60 1023.88 1024.14
1006.94 1007.52 1008.18 1008.17 1008.61 1008.85 1008.85 1009.52 1010.54 1011.17 1011.72 1012.23 1012.69 1013.09 1013.73 1014.33 1014.82 1015.23 1015.72 1016.30 1016.84 1017.33 1017.99 1018.51 1018.96 1019.49 1019.96 1020.37 1020.75 1021.10 1021.45 1021.71 1022.10 1022.41 1022.58 1022.78 1022.94 1023.10 1023.44 1023.80 1024.02 1024.17 1024.52
1006.33 1006.52 1007.44 1007.82 1008.56 1008.68 1008.78 1009.03 1009.75 1010.58 1011.20 1011.72 1012.33 1013.03 1013.53 1014.16 1014.73 1015.17 1015.59 1016.22 1016.76 1017.58 1018.03 1018.57 1019.07 1019.72 1020.18 1020.51 1020.76 1021.25 1021.70 1021.88 1022.20 1022.52 1022.72 1022.88 1023.14 1023.38 1023.68 1024.00 1024.34 1024.58 1024.81
1006.08 1006.17 1006.54 1007.21 1007.56 1008.35 1008.71 1008.98 1009.12 1009.91 1010.58 1011.14 1011.85 1012.50 1013.00 1013.68 1014.44 1014.85 1015.24 1015.90 1016.45 1017.33 1017.84 1018.65 1019.16 1019.74 1020.32 1020.67 1021.03 1021.25 1021.75 1022.09 1022.26 1022.57 1022.81 1023.03 1023.22 1023.49 1023.70 1024.14 1024.53 1024.83 1025.11
1005.43 1005.39 1005.79 1006.43 1006.66 1007.49 1007.96 1008.43 1008.72 1008.78 1009.78 1010.71 1011.29 1011.83 1012.47 1012.95 1013.77 1014.49 1015.01 1015.63 1016.32 1017.13 1017.84 1018.38 1019.04 1019.74 1020.36 1020.69 1021.22 1021.58 1021.87 1022.26 1022.41 1022.66 1022.97 1023.21 1023.40 1023.69 1023.90 1024.18 1024.59 1024.97 1025.33
1004.14 1004.25 1004.98 1005.56 1006.23 1006.60 1007.12 1007.76 1008.25 1008.72 1008.63 1009.78 1010.45 1011.26 1011.95 1012.40 1013.07 1013.73 1014.53 1015.21 1016.08 1017.14 1017.77 1018.36 1019.39 1019.93 1020.57 1020.91 1021.39 1021.70 1022.03 1022.38 1022.73 1022.92 1023.17 1023.41 1023.65 1023.87 1024.14 1024.46 1024.69 1025.11 1025.62
1003.12 1003.50 1004.11 1004.80 1005.26 1005.79 1006.28 1006.87 1007.56 1008.01 1008.57 1008.63 1009.53 1010.35 1011.18 1011.88 1012.40 1013.18 1014.14 1014.92 1015.72 1016.82 1017.67 1018.22 1019.26 1020.07 1020.59 1021.05 1021.58 1022.02 1022.20 1022.50 1022.85 1023.18 1023.41 1023.60 1023.81 1024.02 1024.24 1024.52 1024.83 1025.25 1025.60
1001.75 1002.30 1002.94 1003.68 1004.24 1004.72 1005.08 1005.96 1006.46 1007.06 1007.73 1008.26 1008.59 1009.44 1010.21 1011.12 1011.72 1012.47 1013.42 1014.36 1015.18 1016.03 1017.28 1017.79 1018.87 1019.67 1020.58 1021.23 1021.74 1022.25 1022.59 1022.76 1022.95 1023.21 1023.60 1023.76 1023.91 1024.16 1024.42 1024.67 1025.05 1025.31 1025.71
1000.63 1001.13 1001.64 1002.41 1003.07 1003.90 1004.25 1005.07 1006.02 1006.52 1006.97 1007.61 1008.17 1008.66 1009.31 1010.20 1011.13 1011.94 1012.70 1013.59 1014.64 1015.91 1016.76 1017.47 1018.07 1019.38 1020.26 1021.05 1021.93 1022.78 1023.01 1023.12 1023.24 1023.41 1023.51 1023.76 1024.06 1024.29 1024.52 1024.79 1025.06 1025.36 1025.67
999.59 1000.05 1000.63 1001.33 1001.87 1002.87 1003.60 1004.06 1005.16 1005.46 1006.31 1006.80 1007.35 1007.86 1008.53 1009.41 1010.38 1011.18 1012.27 1013.35 1014.11 1015.10 1015.68 1016.54 1017.59 1018.81 1020.36 1020.92 1022.00 1023.17 1023.46 1023.45 1023.47 1023.52 1023.58 1023.72 1023.96 1024.16 1024.49 1024.70 1025.02 1025.29 1025.61
998.58 999.01 999.40 1000.00 1000.54 1001.24 1001.94 1002.18 1003.33 1004.19 1004.87 1005.46 1006.01 1006.87 1007.57 1008.66 1009.53 1010.39 1011.42 1012.54 1013.51 1014.35 1015.41 1016.07 1016.76 1018.01 1019.33 1020.05 1020.89 1022.29 1023.46 1023.69 1023.38 1023.44 1023.46 1023.53 1023.75 1024.00 1024.30 1024.54 1024.86 1025.16 1025.40
997.10 997.65 998.01 998.48 999.03 999.56 1000.23 1001.13 1002.40 1003.60 1004.55 1005.14 1005.56 1006.14 1006.82 1007.62 1008.39 1009.31 1010.37 1011.55 1012.58 1013.67 1014.40 1015.53 1016.05 1016.42 1017.50 1019.28 1019.47 1020.04 1022.16 1022.35 1022.84 1023.02 1023.14 1023.30 1023.53 1023.75 1023.93 1024.30 1024.67 1024.97 1025.25
995.90 996.06 996.53 996.96 997.62 998.20 999.23 999.65 1000.85 1001.63 1002.69 1003.44 1004.25 1005.08 1005.88 1006.75 1007.37 1008.52 1009.45 1010.46 1011.45 1012.75 1013.72 1014.28 1015.30 1015.78 1016.36 1017.24 1018.67 1018.58 1019.01 1019.89 1021.42 1022.76 1022.86 1022.79 1023.10 1023.40 1023.64 1023.99 1024.35 1024.64 1024.95
995.28 995.50 995.48 995.84 996.48 997.26 998.14 998.39 999.54 1000.71 1001.49 1002.26 1003.18 1003.90 1004.77 1005.56 1006.47 1007.29 1008.42 1009.56 1010.58 1011.80 1012.92 1013.54 1014.52 1015.08 1015.41 1016.28 1016.90 1017.75 1018.75 1019.33 1019.71 1020.68 1021.88 1022.32 1022.77 1022.78 1023.01 1023.33 1023.66 1024.08 1024.41
995.70 995.30 994.80 995.24 995.78 997.00 997.51 997.89 998.68 999.41 1000.49 1001.45 1002.24 1003.08 1003.84 1004.57 1005.72 1006.54 1007.53 1008.59 1009.50 1010.66 1011.67 1012.52 1013.43 1014.11 1014.64 1015.40 1016.21 1016.70 1017.24 1018.07 1018.83 1019.52 1020.70 1021.37 1021.68 1022.10 1022.51 1022.85 1023.13 1023.46 1023.89
Wind_Speed
6 9 14 14 14 13 15 15 16 20 22 22 24 22 24 25 26 24 23 21 20 20 21 20 20 20 20 22 21 19 18 16 15 16 17 18 18 19 17 15 14 13 16
9 11 14 14 15 15 15 16 18 20 23 23 24 22 22 24 25 24 22 21 21 20 22 21 20 20 22 22 20 19 17 16 16 16 17 18 18 18 17 16 14 13 16
7 10 13 16 17 16 18 18 19 21 23 25 24 22 22 24 24 24 21 21 21 20 21 21 20 21 22 20 19 18 17 17 18 18 16 9 12 18 18 16 16 17 16
8 8 10 14 16 15 16 17 19 22 24 25 24 23 23 23 23 23 21 21 22 20 21 22 21 21 20 18 18 18 17 17 16 15 8 8 11 18 18 18 17 17 17
7 8 9 15 16 16 16 17 19 21 23 24 24 23 23 23 23 22 21 20 20 20 20 23 23 20 16 17 16 16 16 16 15 12 9 7 9 16 19 18 16 16 15
7 7 10 14 15 17 16 17 18 19 21 23 23 23 23 24 22 21 20 20 21 21 21 22 22 18 15 15 15 15 15 15 13 8 8 11 10 19 19 18 16 16 16
8 5 9 13 15 18 17 18 18 18 20 22 22 22 22 22 21 20 20 20 20 21 22 21 21 20 12 14 15 14 13 13 9 7 6 7 11 19 19 18 17 17 16
10 9 9 15 17 18 17 18 19 22 18 21 21 22 21 21 21 20 19 18 18 19 20 20 20 20 16 13 13 13 12 12 9 7 6 5 12 17 18 18 17 17 15
6 7 10 11 14 16 13 19 22 23 20 19 20 21 20 20 20 19 19 19 17 18 19 20 19 18 18 15 13 12 12 13 7 5 6 4 14 14 15 17 16 16 12
6 5 8 10 12 13 12 17 21 21 20 19 19 19 18 19 19 18 17 17 17 17 18 19 17 16 14 18 16 13 12 12 6 6 4 4 14 15 13 15 16 16 14
3 5 6 11 13 13 11 12 17 18 19 18 17 18 15 10 12 15 14 18 18 16 16 17 16 14 13 16 18 17 12 4 5 3 3 11 13 16 14 13 12 15 16
8 7 8 10 13 14 11 12 11 12 11 11 12 13 9 10 9 10 12 16 16 15 13 15 14 15 11 6 6 13 5 6 4 4 3 10 12 15 15 13 12 12 13
10 8 9 10 11 16 13 10 7 7 8 8 11 12 9 8 7 6 6 6 7 12 6 9 9 4 7 6 5 4 6 6 4 3 5 10 11 15 15 13 13 11 12
18 16 13 13 11 13 10 11 11 10 10 9 11 12 9 7 8 7 6 7 8 5 7 7 5 5 6 6 7 8 5 5 4 3 5 11 11 14 14 14 13 12 11
15 17 17 16 15 13 12 12 12 12 11 12 12 13 11 10 10 9 8 7 8 7 7 7 7 6 6 6 5 8 7 6 6 4 3 10 11 12 15 15 13 13 12
16 16 17 19 19 16 14 15 14 13 13 11 12 13 14 12 11 11 11 9 7 6 5 7 8 7 5 7 6 5 6 5 5 6 4 6 10 10 12 14 14 13 13
16 16 19 19 20 18 21 16 12 12 14 13 13 16 15 14 15 13 10 10 8 7 8 7 6 5 5 4 6 5 6 5 4 5 4 4 6 9 10 11 13 13 13
16 16 18 16 21 19 20 16 14 13 12 13 13 13 18 16 16 14 11 9 10 8 6 7 7 6 5 5 4 4 4 4 5 4 4 4 4 4 8 12 13 13 13
18 18 18 20 20 22 21 16 16 17 13 12 13 13 19 17 16 14 11 10 13 10 8 9 6 8 7 4 5 4 3 3 5 5 5 5 5 4 3 8 10 10 12
17 18 18 17 20 21 16 13 11 11 12 12 12 13 19 15 16 14 12 12 12 10 10 9 11 5 6 7 6 4 3 1 2 3 5 4 4 5 5 5 5 6 11
14 16 18 18 20 16 14 13 12 13 12 12 12 17 18 16 17 16 12 12 13 14 13 13 9 12 4 6 6 3 3 2 2 3 2 3 5 5 5 5 4 3 5
14 15 18 20 21 20 16 15 13 15 14 14 14 15 17 18 18 17 15 14 16 12 13 14 14 8 4 11 5 5 3 2 2 4 3 4 6 4 6 6 6 6 6
15 15 16 21 22 22 23 15 12 11 10 11 13 12 14 20 20 20 19 15 15 14 13 14 14 16 10 9 9 7 4 6 3 3 7 5 6 5 6 6 6 7 7
16 18 16 21 22 22 24 20 23 16 14 11 12 12 13 20 20 20 18 17 17 12 15 15 12 11 11 14 5 5 2 6 5 2 2 6 6 8 7 5 7 7 8
8 10 14 18 19 21 24 22 19 19 15 14 14 19 18 17 19 19 18 19 18 13 14 16 16 16 13 11 12 10 2 1 2 4 4 4 5 7 7 8 8 8 9
3 7 10 15 18 19 22 21 23 24 19 15 15 14 13 12 12 19 20 17 17 16 16 15 16 17 16 12 11 11 10 6 4 4 3 3 5 6 8 7 8 7 8
Wind_Direction
198 158 153 151 148 138 134 134 136 139 141 143 139 143 141 139 136 135 133 130 126 123 122 120 116 115 113 112 109 105 102 101 100 100 102 101 102 103 96 91 92 98 103
133 154 158 152 151 145 141 138 137 141 142 141 137 146 144 140 138 137 136 132 128 127 126 125 122 120 119 116 109 104 102 98 93 92 97 98 99 102 96 91 91 98 96
134 146 158 158 158 153 146 142 140 143 141 139 139 147 145 142 140 137 138 133 131 132 132 128 126 125 123 116 111 110 106 101 96 93 92 91 98 101 96 91 94 95 95
139 147 159 157 156 153 145 143 144 144 142 139 142 148 146 144 141 139 137 136 137 135 133 130 129 129 124 118 116 114 110 105 99 94 87 91 101 103 100 98 96 97 98
143 150 160 156 156 158 151 148 146 144 144 141 143 147 146 145 142 140 138 137 138 135 134 134 131 127 124 121 120 117 113 106 100 97 94 86 98 101 100 99 96 96 96
157 150 154 159 157 159 155 147 143 144 143 141 143 146 149 149 143 141 138 140 140 139 137 135 132 127 124 122 119 118 114 109 104 97 94 98 99 103 101 100 101 96 90
165 150 150 163 164 160 161 150 146 144 143 142 143 146 151 150 145 143 141 142 142 140 138 137 134 127 118 122 123 119 113 110 104 96 96 104 114 111 108 102 102 98 95
156 164 170 163 165 165 163 151 151 153 146 144 145 148 153 151 146 145 141 140 140 139 137 139 136 131 124 123 125 116 115 111 102 103 100 92 100 111 116 108 95 98 101
139 162 170 169 159 154 147 152 159 160 152 147 148 150 152 150 148 146 142 140 138 137 140 140 138 137 131 129 124 118 112 113 103 102 100 91 117 111 109 107 103 100 105
162 166 169 170 165 162 150 149 159 160 154 151 150 150 151 150 148 147 140 138 137 141 143 139 138 135 131 132 124 116 109 102 99 100 97 114 127 127 113 118 118 117 106
144 189 180 172 181 161 144 152 159 158 155 154 151 148 147 153 151 149 147 141 140 143 145 139 139 130 132 132 128 122 106 96 95 96 109 127 126 132 118 115 118 123 121
185 191 192 177 185 170 158 155 159 168 165 162 161 154 156 158 157 153 146 140 138 136 137 136 132 123 124 129 123 118 123 119 112 116 110 130 140 140 140 132 114 124 122
186 178 196 183 186 183 165 160 164 173 172 169 164 160 157 157 154 142 143 142 139 137 141 134 129 112 128 137 120 113 129 126 132 124 140 138 147 146 148 152 152 130 114
195 190 183 184 188 189 179 169 167 174 176 175 172 169 159 160 160 157 153 147 150 154 147 140 136 130 129 125 137 131 131 137 139 135 154 143 148 152 153 158 163 159 151
201 194 189 186 182 187 186 184 171 178 181 179 176 175 169 169 169 166 165 160 169 156 156 143 143 143 135 135 136 144 144 148 148 147 145 153 150 158 156 155 160 164 167
211 195 189 195 189 182 186 190 190 174 177 179 181 182 178 171 174 174 175 170 165 155 138 144 154 151 143 146 139 144 145 151 155 149 149 156 155 159 162 162 163 160 164
205 196 190 190 191 189 195 190 191 195 175 178 182 182 180 177 178 177 176 168 160 164 154 127 122 119 127 133 143 143 146 150 153 156 150 153 164 169 161 163 168 160 164
209 191 193 189 191 191 195 191 193 189 192 180 181 182 182 182 180 180 178 172 156 165 158 144 146 148 144 144 137 151 147 146 152 159 153 158 160 164 178 176 177 170 173
208 199 195 192 191 194 195 196 194 191 191 193 180 185 182 184 182 181 173 166 162 166 170 166 155 157 159 140 140 129 140 153 167 155 169 176 174 167 161 176 175 174 170
205 207 201 192 193 196 195 191 196 197 191 189 191 188 186 185 180 181 176 169 165 171 177 174 162 130 158 148 129 94 83 94 147 176 182 177 180 178 167 172 178 176 184
201 197 203 195 198 191 194 186 190 191 194 193 193 191 186 186 182 182 180 167 175 183 185 169 150 145 123 133 104 65 35 31 202 205 187 178 189 190 182 180 174 170 186
199 196 199 201 195 195 195 190 194 192 195 191 191 191 184 184 179 182 183 179 183 177 175 174 174 160 118 171 141 121 155 306 241 213 199 196 196 185 195 194 180 177 176
224 219 213 204 197 195 195 186 191 193 191 194 196 188 188 184 181 188 182 177 180 181 185 183 179 177 165 186 174 149 148 209 132 181 213 204 196 196 200 188 192 187 183
226 227 207 207 199 193 189 184 188 189 188 194 189 189 189 191 186 185 183 177 177 182 185 183 185 184 176 177 172 192 132 142 175 179 235 211 199 204 201 194 196 194 192
206 207 201 200 194 189 188 186 186 191 197 193 192 192 194 192 185 179 180 179 181 184 188 182 177 185 190 174 194 184 121 114 106 136 174 185 207 212 205 202 198 200 197
314 214 194 184 187 189 188 187 191 192 191 190 193 193 195 184 184 184 180 180 181 183 184 183 184 186 190 195 192 194 195 173 172 150 128 156 207 211 205 206 205 197 199